Time,TemperatureF,DewpointF,PressureIn,WindDirection,WindDirectionDegrees,WindSpeedMPH,WindSpeedGustMPH,Humidity,HourlyPrecipIn,Conditions,Clouds,dailyrainin,SoftwareType,DateUTC
2013-02-23 00:02:00,57.3,57.2,-100.00,SSW,202,4.0,8.1,99,0.00,,,0.00,,2013-02-23 06:02:00,
2013-02-23 00:07:00,57.2,57.2,-100.00,SSE,157,2.4,5.5,99,0.00,,,0.00,,2013-02-23 06:07:00,
2013-02-23 00:12:00,57.1,57.1,-100.00,ENE,67,2.7,6.5,100,0.00,,,0.00,,2013-02-23 06:12:00,
2013-02-23 00:18:00,57.1,56.9,-100.00,ESE,112,2.8,6.5,99,0.00,,,0.00,,2013-02-23 06:18:00,
2013-02-23 00:23:00,57.1,56.9,-100.00,ESE,112,2.4,4.9,99,0.00,,,0.00,,2013-02-23 06:23:00,
2013-02-23 00:28:00,57.2,57.1,-100.00,ENE,67,2.3,5.1,99,0.00,,,0.00,,2013-02-23 06:28:00,
2013-02-23 00:33:00,57.2,57.2,-100.00,ESE,112,2.1,5.1,100,0.00,,,0.00,,2013-02-23 06:33:00,
2013-02-23 00:38:00,57.2,57.2,-100.00,SE,135,2.0,4.3,100,0.00,,,0.00,,2013-02-23 06:38:00,
2013-02-23 00:44:00,57.3,57.2,-100.00,South,180,2.6,5.1,99,0.00,,,0.00,,2013-02-23 06:44:00,
2013-02-23 00:49:00,57.3,57.3,-100.00,South,180,2.0,5.1,100,0.00,,,0.00,,2013-02-23 06:49:00,
2013-02-23 00:54:00,57.3,57.0,-100.00,South,180,1.9,3.7,99,0.00,,,0.00,,2013-02-23 06:54:00,
2013-02-23 00:59:00,57.3,57.2,-100.00,SSW,202,2.4,5.8,99,0.00,,,0.00,,2013-02-23 06:59:00,
2013-02-23 01:04:00,57.2,57.2,-100.00,SSW,202,3.9,6.2,100,0.00,,,0.00,,2013-02-23 07:04:00,
2013-02-23 01:09:00,57.1,56.8,-100.00,SSW,202,4.3,7.8,99,0.00,,,0.00,,2013-02-23 07:09:00,
2013-02-23 01:14:00,57.0,56.8,-100.00,SSW,202,3.9,7.8,99,0.01,,,0.01,,2013-02-23 07:14:00,
2013-02-23 01:19:00,56.9,56.8,-100.00,SSW,202,4.0,7.6,99,0.01,,,0.01,,2013-02-23 07:19:00,
2013-02-23 01:24:00,56.9,56.8,-100.00,SSW,202,3.9,7.6,99,0.01,,,0.01,,2013-02-23 07:24:00,
2013-02-23 01:29:00,56.5,56.5,-100.00,South,180,3.3,5.8,100,0.01,,,0.01,,2013-02-23 07:29:00,
2013-02-23 01:34:00,56.4,56.4,-100.00,SE,135,3.9,7.2,100,0.01,,,0.01,,2013-02-23 07:34:00,
2013-02-23 01:39:00,56.3,56.3,-100.00,SE,135,3.8,7.2,100,0.01,,,0.01,,2013-02-23 07:39:00,
2013-02-23 01:44:00,56.3,56.3,-100.00,SW,225,3.5,6.5,100,0.01,,,0.01,,2013-02-23 07:44:00,
2013-02-23 01:49:00,56.2,56.1,-100.00,South,180,3.6,6.0,99,0.01,,,0.01,,2013-02-23 07:49:00,
2013-02-23 01:54:00,56.0,56.0,-100.00,SSE,157,3.5,5.6,100,0.01,,,0.01,,2013-02-23 07:54:00,
2013-02-23 01:59:00,56.1,56.1,-100.00,South,180,3.1,5.3,100,0.01,,,0.01,,2013-02-23 07:59:00,
2013-02-23 02:04:00,55.8,55.7,-100.00,SSE,157,2.4,5.6,99,0.01,,,0.01,,2013-02-23 08:04:00,
2013-02-23 02:09:00,56.0,55.9,-100.00,NE,45,2.6,5.0,99,0.01,,,0.01,,2013-02-23 08:09:00,
2013-02-23 02:14:00,56.1,56.0,-100.00,North,0,2.8,5.0,99,0.00,,,0.01,,2013-02-23 08:14:00,
2013-02-23 02:19:00,56.3,56.3,-100.00,SE,135,2.8,5.7,100,0.00,,,0.01,,2013-02-23 08:19:00,
2013-02-23 02:24:00,56.2,55.5,-100.00,SSW,202,4.0,6.4,97,0.00,,,0.01,,2013-02-23 08:24:00,
2013-02-23 02:29:00,56.2,55.9,-100.00,South,180,4.3,9.9,98,0.00,,,0.01,,2013-02-23 08:29:00,
2013-02-23 02:34:00,56.1,56.1,-100.00,SE,135,3.6,6.6,100,0.00,,,0.01,,2013-02-23 08:34:00,
2013-02-23 02:39:00,56.0,55.9,-100.00,SSE,157,2.7,6.6,99,0.01,,,0.02,,2013-02-23 08:39:00,
2013-02-23 02:44:00,56.1,55.8,-100.00,South,180,3.4,9.1,99,0.24,,,0.25,,2013-02-23 08:44:00,
2013-02-23 02:49:00,55.8,55.6,-100.00,SSW,202,4.4,9.1,99,-99.99,,,-99.99,,2013-02-23 08:49:00,
2013-02-23 02:54:00,55.8,55.6,-100.00,SSE,157,2.7,5.6,99,-99.99,,,-99.99,,2013-02-23 08:54:00,
2013-02-23 02:59:00,55.8,55.8,-100.00,ENE,67,2.9,4.7,99,-99.99,,,-99.99,,2013-02-23 08:59:00,
2013-02-23 03:04:00,56.0,55.9,-100.00,ENE,67,2.9,4.9,99,-99.99,,,-99.99,,2013-02-23 09:04:00,
2013-02-23 03:09:00,56.0,55.7,-100.00,South,180,2.8,4.9,99,-99.99,,,-99.99,,2013-02-23 09:09:00,
2013-02-23 03:14:00,56.1,56.0,-100.00,South,180,3.6,7.2,99,-99.99,,,-99.99,,2013-02-23 09:14:00,
2013-02-23 03:19:00,56.1,56.1,-100.00,South,180,3.9,7.2,100,-99.99,,,-99.99,,2013-02-23 09:19:00,
2013-02-23 03:24:00,56.0,56.0,-100.00,South,180,3.5,7.3,100,-99.99,,,-99.99,,2013-02-23 09:24:00,
2013-02-23 03:29:00,56.0,56.0,-100.00,South,180,3.9,7.3,100,-99.99,,,-99.99,,2013-02-23 09:29:00,
2013-02-23 03:34:00,56.0,56.0,-100.00,SSE,157,3.6,8.1,99,-99.99,,,-99.99,,2013-02-23 09:34:00,
2013-02-23 03:39:00,56.1,56.0,-100.00,SE,135,3.4,8.1,99,-99.99,,,-99.99,,2013-02-23 09:39:00,
2013-02-23 03:44:00,56.1,56.1,-100.00,SSE,157,3.8,8.5,100,-99.99,,,-99.99,,2013-02-23 09:44:00,
2013-02-23 03:49:00,56.1,55.9,-100.00,SSE,157,4.2,8.5,99,-99.99,,,-99.99,,2013-02-23 09:49:00,
2013-02-23 03:54:00,56.1,56.0,-100.00,East,90,3.7,6.7,99,-99.99,,,-99.99,,2013-02-23 09:54:00,
2013-02-23 03:59:00,56.1,56.1,-100.00,East,90,3.3,6.4,100,-99.99,,,-99.99,,2013-02-23 09:59:00,
2013-02-23 04:05:00,56.1,55.9,-100.00,ESE,112,3.5,8.8,99,-99.99,,,-99.99,,2013-02-23 10:05:00,
2013-02-23 04:10:00,56.1,56.0,-100.00,SSE,157,3.2,6.5,99,-99.99,,,-99.99,,2013-02-23 10:10:00,
2013-02-23 04:15:00,56.1,56.1,-100.00,South,180,3.9,8.6,100,-99.99,,,-99.99,,2013-02-23 10:15:00,
2013-02-23 04:20:00,55.8,55.8,-100.00,SE,135,4.7,8.6,99,-99.99,,,-99.99,,2013-02-23 10:20:00,
2013-02-23 04:25:00,55.8,55.7,-100.00,East,90,3.3,6.9,99,-99.99,,,-99.99,,2013-02-23 10:25:00,
2013-02-23 04:30:00,55.8,55.8,-100.00,SE,135,3.1,7.6,100,-99.99,,,-99.99,,2013-02-23 10:30:00,
2013-02-23 04:35:00,55.8,55.8,-100.00,SE,135,3.8,7.6,99,-99.99,,,-99.99,,2013-02-23 10:35:00,
2013-02-23 04:40:00,55.7,55.7,-100.00,SE,135,4.5,8.6,99,-99.99,,,-99.99,,2013-02-23 10:40:00,
2013-02-23 04:45:00,55.7,55.7,-100.00,South,180,5.1,8.6,100,-99.99,,,-99.99,,2013-02-23 10:45:00,
2013-02-23 04:50:00,55.7,55.5,-100.00,South,180,4.5,8.6,99,-99.99,,,-99.99,,2013-02-23 10:50:00,
2013-02-23 04:55:00,55.7,55.4,-100.00,SSE,157,4.1,7.8,98,-99.99,,,-99.99,,2013-02-23 10:55:00,
2013-02-23 05:00:00,55.7,55.7,-100.00,SE,135,3.7,7.8,100,-99.99,,,-99.99,,2013-02-23 11:00:00,
2013-02-23 05:05:00,55.7,55.7,-100.00,SE,135,3.8,7.7,100,-99.99,,,-99.99,,2013-02-23 11:05:00,
2013-02-23 05:10:00,55.7,55.5,-100.00,SE,135,4.1,7.4,99,-99.99,,,-99.99,,2013-02-23 11:10:00,
2013-02-23 05:15:00,55.7,55.7,-100.00,SE,135,3.8,7.4,99,-99.99,,,-99.99,,2013-02-23 11:15:00,
2013-02-23 05:20:00,55.7,55.6,-100.00,SSE,157,3.6,6.9,99,-99.99,,,-99.99,,2013-02-23 11:20:00,
2013-02-23 05:25:00,55.7,55.5,-100.00,SE,135,3.5,6.9,99,-99.99,,,-99.99,,2013-02-23 11:25:00,
2013-02-23 05:30:00,55.7,55.3,-100.00,SE,135,2.8,6.7,98,-99.99,,,-99.99,,2013-02-23 11:30:00,
2013-02-23 05:35:00,55.7,55.7,-100.00,SE,135,3.8,9.5,99,-99.99,,,-99.99,,2013-02-23 11:35:00,
2013-02-23 05:40:00,55.6,55.6,-100.00,SSE,157,4.1,9.5,100,-99.99,,,-99.99,,2013-02-23 11:40:00,
2013-02-23 05:45:00,55.6,55.4,-100.00,SSE,157,4.0,10.2,99,-99.99,,,-99.99,,2013-02-23 11:45:00,
2013-02-23 05:50:00,55.6,55.4,-100.00,SSE,157,4.6,10.2,99,-99.99,,,-99.99,,2013-02-23 11:50:00,
2013-02-23 05:55:00,55.6,55.4,-100.00,SE,135,3.7,6.2,99,-99.99,,,-99.99,,2013-02-23 11:55:00,
2013-02-23 06:00:00,55.5,55.2,-100.00,SE,135,3.1,5.5,98,-99.99,,,-99.99,,2013-02-23 12:00:00,
2013-02-23 06:05:00,55.5,55.4,-100.00,ESE,112,4.0,9.2,99,-99.99,,,-99.99,,2013-02-23 12:05:00,
2013-02-23 06:10:00,55.4,55.1,-100.00,SE,135,4.3,9.2,98,-99.99,,,-99.99,,2013-02-23 12:10:00,
2013-02-23 06:15:00,55.4,55.2,-100.00,SE,135,4.4,8.9,99,-99.99,,,-99.99,,2013-02-23 12:15:00,
2013-02-23 06:20:00,55.4,55.2,-100.00,SE,135,4.6,7.8,99,-99.99,,,-99.99,,2013-02-23 12:20:00,
2013-02-23 06:25:00,55.3,54.8,-100.00,SE,135,4.3,7.8,98,-99.99,,,-99.99,,2013-02-23 12:25:00,
2013-02-23 06:30:00,55.3,54.8,-100.00,NE,45,4.3,8.0,98,-99.99,,,-99.99,,2013-02-23 12:30:00,
2013-02-23 06:35:00,55.3,54.5,-100.00,North,0,4.3,8.0,97,-99.99,,,-99.99,,2013-02-23 12:35:00,
2013-02-23 06:40:00,55.2,54.4,-100.00,NE,45,3.7,7.0,97,-99.99,,,-99.99,,2013-02-23 12:40:00,
2013-02-23 06:45:00,55.2,54.4,-100.00,East,90,3.1,5.8,97,-99.99,,,-99.99,,2013-02-23 12:45:00,
2013-02-23 06:50:00,55.2,54.4,-100.00,East,90,2.7,5.8,97,-99.99,,,-99.99,,2013-02-23 12:50:00,
2013-02-23 06:55:00,55.1,54.1,-100.00,ESE,112,2.6,6.0,96,-99.99,,,-99.99,,2013-02-23 12:55:00,
2013-02-23 07:00:00,55.1,54.3,-100.00,East,90,3.0,6.1,97,-99.99,,,-99.99,,2013-02-23 13:00:00,
2013-02-23 07:05:00,55.2,54.4,-100.00,North,0,2.7,5.3,97,-99.99,,,-99.99,,2013-02-23 13:05:00,
2013-02-23 07:10:00,55.2,54.3,-100.00,NNW,337,2.4,4.6,96,-99.99,,,-99.99,,2013-02-23 13:10:00,
2013-02-23 07:15:00,55.2,54.4,-100.00,NNE,22,1.8,4.9,97,-99.99,,,-99.99,,2013-02-23 13:15:00,
2013-02-23 07:20:00,55.3,54.0,-100.00,NE,45,2.3,5.1,95,-99.99,,,-99.99,,2013-02-23 13:20:00,
2013-02-23 07:25:00,55.2,54.3,-100.00,NE,45,2.7,5.1,96,-99.99,,,-99.99,,2013-02-23 13:25:00,
2013-02-23 07:30:00,55.2,54.6,-100.00,ENE,67,2.9,5.0,97,-99.99,,,-99.99,,2013-02-23 13:30:00,
2013-02-23 07:35:00,55.3,54.4,-100.00,East,90,3.3,6.7,96,-99.99,,,-99.99,,2013-02-23 13:35:00,
2013-02-23 07:40:00,55.2,53.9,-100.00,East,90,3.5,6.7,95,-99.99,,,-99.99,,2013-02-23 13:40:00,
2013-02-23 07:46:00,55.3,54.2,-100.00,NE,45,3.0,6.0,95,-99.99,,,-99.99,,2013-02-23 13:46:00,
2013-02-23 07:51:00,55.3,54.0,-100.00,East,90,3.2,6.0,95,-99.99,,,-99.99,,2013-02-23 13:51:00,
2013-02-23 07:56:00,55.4,53.8,-100.00,ENE,67,3.8,6.2,94,-99.99,,,-99.99,,2013-02-23 13:56:00,
2013-02-23 08:01:00,55.6,54.1,-100.00,NE,45,3.4,6.5,94,-99.99,,,-99.99,,2013-02-23 14:01:00,
2013-02-23 08:06:00,55.5,53.9,-100.00,ENE,67,3.8,7.4,94,-99.99,,,-99.99,,2013-02-23 14:06:00,
2013-02-23 08:11:00,55.7,54.0,-100.00,ENE,67,3.5,6.2,93,-99.99,,,-99.99,,2013-02-23 14:11:00,
2013-02-23 08:16:00,55.8,54.2,-100.00,ENE,67,3.4,6.4,94,-99.99,,,-99.99,,2013-02-23 14:16:00,
2013-02-23 08:21:00,55.7,53.8,-100.00,East,90,3.6,6.5,93,-99.99,,,-99.99,,2013-02-23 14:21:00,
2013-02-23 08:26:00,55.8,53.8,-100.00,North,0,3.6,5.9,92,-99.99,,,-99.99,,2013-02-23 14:26:00,
2013-02-23 08:31:00,55.8,53.8,-100.00,NNE,22,4.2,7.9,92,-99.99,,,-99.99,,2013-02-23 14:31:00,
2013-02-23 08:36:00,56.0,53.9,-100.00,NNE,22,3.3,6.2,92,-99.99,,,-99.99,,2013-02-23 14:36:00,
2013-02-23 08:41:00,56.1,53.9,-100.00,NNE,22,3.4,6.2,92,-99.99,,,-99.99,,2013-02-23 14:41:00,
2013-02-23 08:46:00,56.2,54.0,-100.00,ENE,67,4.1,6.5,92,-99.99,,,-99.99,,2013-02-23 14:46:00,
2013-02-23 08:51:00,56.1,53.9,-100.00,ESE,112,3.6,6.5,92,-99.99,,,-99.99,,2013-02-23 14:51:00,
2013-02-23 08:56:00,56.3,53.8,-100.00,SE,135,3.3,5.5,91,-99.99,,,-99.99,,2013-02-23 14:56:00,
2013-02-23 09:01:00,56.2,53.9,-100.00,ESE,112,3.4,7.1,91,-99.99,,,-99.99,,2013-02-23 15:01:00,
2013-02-23 09:06:00,56.3,54.1,-100.00,East,90,3.3,7.1,92,-99.99,,,-99.99,,2013-02-23 15:06:00,
2013-02-23 09:11:00,56.3,54.0,-100.00,ESE,112,3.0,6.6,91,-99.99,,,-99.99,,2013-02-23 15:11:00,
2013-02-23 09:16:00,56.6,54.4,-100.00,NE,45,2.8,5.0,91,-99.99,,,-99.99,,2013-02-23 15:16:00,
2013-02-23 09:21:00,56.8,54.3,-100.00,ENE,67,2.3,5.0,91,-99.99,,,-99.99,,2013-02-23 15:21:00,
2013-02-23 09:26:00,57.7,54.8,-100.00,ENE,67,3.3,7.0,90,-99.99,,,-99.99,,2013-02-23 15:26:00,
2013-02-23 09:31:00,57.8,54.9,-100.00,NE,45,4.1,9.0,90,-99.99,,,-99.99,,2013-02-23 15:31:00,
2013-02-23 09:36:00,57.2,54.1,-100.00,ENE,67,4.3,9.0,89,-99.99,,,-99.99,,2013-02-23 15:36:00,
2013-02-23 09:42:00,57.8,54.5,-100.00,East,90,3.8,6.8,88,-99.99,,,-99.99,,2013-02-23 15:42:00,
2013-02-23 09:47:00,58.0,54.9,-100.00,East,90,3.7,5.9,89,-99.99,,,-99.99,,2013-02-23 15:47:00,
2013-02-23 09:52:00,58.1,54.6,-100.00,East,90,3.9,5.9,87,-99.99,,,-99.99,,2013-02-23 15:52:00,
2013-02-23 09:57:00,58.2,54.6,-100.00,East,90,4.3,8.2,87,-99.99,,,-99.99,,2013-02-23 15:57:00,
2013-02-23 10:02:00,58.9,55.2,-100.00,NE,45,3.6,6.2,87,-99.99,,,-99.99,,2013-02-23 16:02:00,
2013-02-23 10:07:00,59.0,55.3,-100.00,East,90,3.1,5.8,87,-99.99,,,-99.99,,2013-02-23 16:07:00,
2013-02-23 10:12:00,58.5,54.5,-100.00,SSE,157,3.4,5.8,86,-99.99,,,-99.99,,2013-02-23 16:12:00,
2013-02-23 10:17:00,58.7,54.7,-100.00,ESE,112,3.7,6.7,86,-99.99,,,-99.99,,2013-02-23 16:17:00,
2013-02-23 10:22:00,59.2,55.6,-100.00,East,90,2.1,6.7,87,-99.99,,,-99.99,,2013-02-23 16:22:00,
2013-02-23 10:27:00,59.3,55.1,-100.00,ESE,112,2.0,4.9,85,-99.99,,,-99.99,,2013-02-23 16:27:00,
2013-02-23 10:32:00,58.8,54.4,-100.00,ESE,112,2.6,5.6,85,-99.99,,,-99.99,,2013-02-23 16:32:00,
2013-02-23 10:37:00,58.9,54.6,-100.00,SE,135,3.0,5.6,85,-99.99,,,-99.99,,2013-02-23 16:37:00,
2013-02-23 10:42:00,59.2,55.1,-100.00,SSE,157,3.3,5.9,86,-99.99,,,-99.99,,2013-02-23 16:42:00,
2013-02-23 10:47:00,59.2,54.9,-100.00,SSE,157,3.0,5.9,85,-99.99,,,-99.99,,2013-02-23 16:47:00,
2013-02-23 10:52:00,59.1,54.8,-100.00,East,90,2.5,5.0,85,-99.99,,,-99.99,,2013-02-23 16:52:00,
2013-02-23 10:57:00,59.2,54.9,-100.00,SE,135,2.3,4.1,85,-99.99,,,-99.99,,2013-02-23 16:57:00,
2013-02-23 11:02:00,59.0,54.7,-100.00,SSE,157,2.8,5.6,85,-99.99,,,-99.99,,2013-02-23 17:02:00,
2013-02-23 11:07:00,59.1,54.6,-100.00,SSE,157,2.9,5.2,84,-99.99,,,-99.99,,2013-02-23 17:07:00,
2013-02-23 11:12:00,59.2,54.6,-100.00,East,90,2.9,5.2,84,-99.99,,,-99.99,,2013-02-23 17:12:00,
2013-02-23 11:17:00,59.3,54.7,-100.00,SE,135,2.9,5.2,84,-99.99,,,-99.99,,2013-02-23 17:17:00,
2013-02-23 11:22:00,59.3,55.0,-100.00,South,180,2.9,5.8,85,-99.99,,,-99.99,,2013-02-23 17:22:00,
2013-02-23 11:27:00,59.3,54.4,-100.00,SE,135,2.5,5.8,83,-99.99,,,-99.99,,2013-02-23 17:27:00,
2013-02-23 11:32:00,59.5,55.0,-100.00,SSE,157,2.6,4.4,85,-99.99,,,-99.99,,2013-02-23 17:32:00,
2013-02-23 11:37:00,59.3,54.8,-100.00,South,180,3.1,4.9,84,-99.99,,,-99.99,,2013-02-23 17:37:00,
2013-02-23 11:42:00,59.3,55.0,-100.00,South,180,3.3,5.3,85,-99.99,,,-99.99,,2013-02-23 17:42:00,
2013-02-23 11:47:00,59.1,54.6,-100.00,South,180,3.0,5.3,84,-99.99,,,-99.99,,2013-02-23 17:47:00,
2013-02-23 11:52:00,59.0,54.5,-100.00,SSE,157,2.9,5.4,84,-99.99,,,-99.99,,2013-02-23 17:52:00,
2013-02-23 11:57:00,59.0,54.9,-100.00,SSE,157,3.5,7.8,85,-99.99,,,-99.99,,2013-02-23 17:57:00,
2013-02-23 12:02:00,58.9,54.5,-100.00,South,180,3.2,7.8,85,-99.99,,,-99.99,,2013-02-23 18:02:00,
2013-02-23 12:07:00,59.0,54.5,-100.00,SE,135,1.9,4.0,84,-99.99,,,-99.99,,2013-02-23 18:07:00,
2013-02-23 12:12:00,58.9,54.5,-100.00,NE,45,1.7,4.1,85,-99.99,,,-99.99,,2013-02-23 18:12:00,
2013-02-23 12:17:00,58.8,54.4,-100.00,ESE,112,2.0,4.2,85,-99.99,,,-99.99,,2013-02-23 18:17:00,
2013-02-23 12:22:00,58.8,54.6,-100.00,SE,135,2.2,4.2,85,-99.99,,,-99.99,,2013-02-23 18:22:00,
2013-02-23 12:27:00,58.8,54.4,-100.00,SSE,157,1.9,4.0,85,-99.99,,,-99.99,,2013-02-23 18:27:00,
2013-02-23 12:32:00,58.7,54.7,-100.00,East,90,1.4,3.4,86,-99.99,,,-99.99,,2013-02-23 18:32:00,
2013-02-23 12:37:00,58.4,54.8,-100.00,North,0,0.8,1.6,87,-99.99,,,-99.99,,2013-02-23 18:37:00,
2013-02-23 12:42:00,58.3,55.1,-100.00,NNW,337,0.8,1.6,88,-99.99,,,-99.99,,2013-02-23 18:42:00,
2013-02-23 12:47:00,58.3,55.7,-100.00,NNE,22,0.6,1.9,90,-99.99,,,-99.99,,2013-02-23 18:47:00,
2013-02-23 12:52:00,57.8,55.5,-100.00,ENE,67,0.6,1.9,92,-99.99,,,-99.99,,2013-02-23 18:52:00,
2013-02-23 12:57:00,57.2,55.5,-100.00,North,0,2.7,6.8,93,-99.99,,,-99.99,,2013-02-23 18:57:00,
2013-02-23 13:02:00,57.2,55.6,-100.00,North,0,3.6,7.2,94,-99.99,,,-99.99,,2013-02-23 19:02:00,
2013-02-23 13:07:00,57.2,55.7,-100.00,North,0,2.5,5.5,94,-99.99,,,-99.99,,2013-02-23 19:07:00,
2013-02-23 13:12:00,57.2,55.8,-100.00,NNW,337,3.3,7.1,95,-99.99,,,-99.99,,2013-02-23 19:12:00,
2013-02-23 13:17:00,57.3,56.3,-100.00,NE,45,2.5,7.1,96,-99.99,,,-99.99,,2013-02-23 19:17:00,
2013-02-23 13:22:00,57.2,56.0,-100.00,SE,135,2.4,4.7,95,-99.99,,,-99.99,,2013-02-23 19:22:00,
2013-02-23 13:27:00,57.2,56.2,-100.00,ENE,67,3.0,4.7,96,-99.99,,,-99.99,,2013-02-23 19:27:00,
2013-02-23 13:32:00,57.2,56.3,-100.00,ENE,67,2.5,4.1,96,-99.99,,,-99.99,,2013-02-23 19:32:00,
2013-02-23 13:37:00,57.1,56.0,-100.00,SSE,157,2.5,4.9,96,-99.99,,,-99.99,,2013-02-23 19:37:00,
2013-02-23 13:42:00,56.9,56.0,-100.00,NNE,22,3.1,7.7,97,-99.99,,,-99.99,,2013-02-23 19:42:00,
2013-02-23 13:47:00,57.0,56.3,-100.00,North,0,3.0,7.7,97,-99.99,,,-99.99,,2013-02-23 19:47:00,
2013-02-23 13:52:00,57.2,56.5,-100.00,ESE,112,2.5,5.5,97,-99.99,,,-99.99,,2013-02-23 19:52:00,
2013-02-23 13:57:00,57.1,56.5,-100.00,South,180,3.3,6.5,97,-99.99,,,-99.99,,2013-02-23 19:57:00,
2013-02-23 14:02:00,57.0,56.4,-100.00,ESE,112,2.7,6.5,97,-99.99,,,-99.99,,2013-02-23 20:02:00,
2013-02-23 14:07:00,57.0,56.3,-100.00,East,90,2.3,4.4,97,-99.99,,,-99.99,,2013-02-23 20:07:00,
2013-02-23 14:12:00,57.0,56.3,-100.00,NE,45,2.3,4.4,97,-99.99,,,-99.99,,2013-02-23 20:12:00,
2013-02-23 14:17:00,57.1,56.5,-100.00,North,0,1.8,4.3,98,-99.99,,,-99.99,,2013-02-23 20:17:00,
2013-02-23 14:22:00,57.1,56.3,-100.00,NE,45,2.0,4.3,97,-99.99,,,-99.99,,2013-02-23 20:22:00,
2013-02-23 14:27:00,57.3,56.8,-100.00,SSE,157,2.5,4.3,98,-99.99,,,-99.99,,2013-02-23 20:27:00,
2013-02-23 14:32:00,57.3,56.8,-100.00,South,180,2.3,4.3,98,-99.99,,,-99.99,,2013-02-23 20:32:00,
2013-02-23 14:37:00,57.5,57.3,-100.00,South,180,3.1,8.4,99,-99.99,,,-99.99,,2013-02-23 20:37:00,
2013-02-23 14:42:00,57.7,56.9,-100.00,SSE,157,3.5,8.4,97,-99.99,,,-99.99,,2013-02-23 20:42:00,
2013-02-23 14:47:00,58.1,57.3,-100.00,SE,135,3.1,5.5,97,-99.99,,,-99.99,,2013-02-23 20:47:00,
2013-02-23 14:52:00,58.5,57.9,-100.00,SE,135,2.9,5.3,97,-99.99,,,-99.99,,2013-02-23 20:52:00,
2013-02-23 14:57:00,59.2,58.5,-100.00,SSE,157,2.7,6.2,97,-99.99,,,-99.99,,2013-02-23 20:57:00,
2013-02-23 15:02:00,59.1,58.1,-100.00,South,180,2.8,5.8,96,-99.99,,,-99.99,,2013-02-23 21:02:00,
2013-02-23 15:07:00,59.1,58.3,-100.00,South,180,3.3,7.5,97,-99.99,,,-99.99,,2013-02-23 21:07:00,
2013-02-23 15:12:00,59.3,58.3,-100.00,South,180,3.9,7.8,96,-99.99,,,-99.99,,2013-02-23 21:12:00,
2013-02-23 15:18:00,59.2,57.8,-100.00,SSW,202,3.5,6.2,94,-99.99,,,-99.99,,2013-02-23 21:18:00,
2013-02-23 15:23:00,59.5,58.0,-100.00,South,180,3.9,7.3,94,-99.99,,,-99.99,,2013-02-23 21:23:00,
2013-02-23 15:28:00,59.7,58.2,-100.00,SSE,157,2.5,6.6,94,-99.99,,,-99.99,,2013-02-23 21:28:00,
2013-02-23 15:33:00,59.6,57.8,-100.00,SSE,157,2.1,5.0,93,-99.99,,,-99.99,,2013-02-23 21:33:00,
2013-02-23 15:38:00,59.6,57.7,-100.00,South,180,2.8,6.2,93,-99.99,,,-99.99,,2013-02-23 21:38:00,
2013-02-23 15:43:00,59.8,58.2,-100.00,SSW,202,3.4,6.2,94,-99.99,,,-99.99,,2013-02-23 21:43:00,
2013-02-23 15:48:00,59.7,57.7,-100.00,SSW,202,3.1,5.0,93,-99.99,,,-99.99,,2013-02-23 21:48:00,
2013-02-23 15:53:00,59.6,57.2,-100.00,SSW,202,3.5,6.1,91,-99.99,,,-99.99,,2013-02-23 21:53:00,
2013-02-23 15:58:00,59.7,57.3,-100.00,SSW,202,2.9,4.8,91,-99.99,,,-99.99,,2013-02-23 21:58:00,
2013-02-23 16:03:00,59.7,57.5,-100.00,SSE,157,2.0,4.6,92,-99.99,,,-99.99,,2013-02-23 22:03:00,
2013-02-23 16:08:00,59.7,57.3,-100.00,SE,135,1.0,2.5,91,-99.99,,,-99.99,,2013-02-23 22:08:00,
2013-02-23 16:13:00,59.9,57.3,-100.00,SE,135,1.4,3.2,90,-99.99,,,-99.99,,2013-02-23 22:13:00,
2013-02-23 16:18:00,59.8,57.0,-100.00,SSE,157,2.7,4.9,90,-99.99,,,-99.99,,2013-02-23 22:18:00,
2013-02-23 16:23:00,59.8,57.1,-100.00,SSE,157,2.8,4.9,90,-99.99,,,-99.99,,2013-02-23 22:23:00,
2013-02-23 16:28:00,59.7,56.7,-100.00,SSE,157,2.9,5.0,89,-99.99,,,-99.99,,2013-02-23 22:28:00,
2013-02-23 16:33:00,59.7,57.1,-100.00,South,180,3.2,5.0,90,-99.99,,,-99.99,,2013-02-23 22:33:00,
2013-02-23 16:38:00,59.6,57.0,-100.00,SSW,202,2.3,4.9,91,-99.99,,,-99.99,,2013-02-23 22:38:00,
2013-02-23 16:43:00,59.6,57.3,-100.00,South,180,2.1,3.7,91,-99.99,,,-99.99,,2013-02-23 22:43:00,
2013-02-23 16:48:00,59.5,57.1,-100.00,SSW,202,2.3,4.1,91,-99.99,,,-99.99,,2013-02-23 22:48:00,
2013-02-23 16:53:00,59.3,56.9,-100.00,SSW,202,3.0,6.2,91,-99.99,,,-99.99,,2013-02-23 22:53:00,
2013-02-23 16:58:00,59.1,56.7,-100.00,SSW,202,3.2,6.2,91,-99.99,,,-99.99,,2013-02-23 22:58:00,
2013-02-23 17:03:00,59.0,56.3,-100.00,SSW,202,3.1,4.7,90,-99.99,,,-99.99,,2013-02-23 23:03:00,
2013-02-23 17:08:00,59.0,56.3,-100.00,SSW,202,3.2,5.1,90,-99.99,,,-99.99,,2013-02-23 23:08:00,
2013-02-23 17:13:00,58.9,56.2,-100.00,SSW,202,2.4,4.1,90,-99.99,,,-99.99,,2013-02-23 23:13:00,
2013-02-23 17:18:00,58.9,56.3,-100.00,SSW,202,2.2,3.8,90,-99.99,,,-99.99,,2013-02-23 23:18:00,
2013-02-23 17:23:00,58.8,56.1,-100.00,SSW,202,2.7,4.6,90,-99.99,,,-99.99,,2013-02-23 23:23:00,
2013-02-23 17:28:00,58.7,56.0,-100.00,SSW,202,3.0,4.8,90,-99.99,,,-99.99,,2013-02-23 23:28:00,
2013-02-23 17:33:00,58.5,55.9,-100.00,SSW,202,2.6,4.8,90,-99.99,,,-99.99,,2013-02-23 23:33:00,
2013-02-23 17:38:00,58.4,56.0,-100.00,SSW,202,2.6,4.6,91,-99.99,,,-99.99,,2013-02-23 23:38:00,
2013-02-23 17:43:00,58.3,55.9,-100.00,SSW,202,2.4,4.6,91,-99.99,,,-99.99,,2013-02-23 23:43:00,
2013-02-23 17:48:00,58.3,55.8,-100.00,South,180,2.7,4.7,91,-99.99,,,-99.99,,2013-02-23 23:48:00,
2013-02-23 17:53:00,58.2,55.6,-100.00,South,180,2.1,4.6,90,-99.99,,,-99.99,,2013-02-23 23:53:00,
2013-02-23 17:59:00,58.1,55.7,-100.00,South,180,2.2,4.9,91,-99.99,,,-99.99,,2013-02-23 23:59:00,
2013-02-23 18:04:00,57.9,55.5,-100.00,South,180,2.7,4.9,91,-99.99,,,-99.99,,2013-02-24 00:04:00,
2013-02-23 18:09:00,57.7,55.7,-100.00,SSW,202,2.7,4.7,93,-99.99,,,-99.99,,2013-02-24 00:09:00,
2013-02-23 18:14:00,57.4,55.4,-100.00,SSW,202,3.4,6.2,92,-99.99,,,-99.99,,2013-02-24 00:14:00,
2013-02-23 18:19:00,57.3,55.5,-100.00,SSW,202,3.2,6.2,93,-99.99,,,-99.99,,2013-02-24 00:19:00,
2013-02-23 18:24:00,57.2,55.3,-100.00,SSW,202,2.8,4.4,93,-99.99,,,-99.99,,2013-02-24 00:24:00,
2013-02-23 18:29:00,57.2,55.4,-100.00,SSW,202,2.7,4.4,93,-99.99,,,-99.99,,2013-02-24 00:29:00,
2013-02-23 18:34:00,57.1,55.3,-100.00,South,180,2.3,4.1,93,-99.99,,,-99.99,,2013-02-24 00:34:00,
2013-02-23 18:39:00,57.0,55.4,-100.00,SSE,157,2.4,4.4,94,-99.99,,,-99.99,,2013-02-24 00:39:00,
2013-02-23 18:44:00,57.0,55.2,-100.00,SSE,157,2.6,4.1,93,-99.99,,,-99.99,,2013-02-24 00:44:00,
2013-02-23 18:49:00,57.0,55.1,-100.00,South,180,2.3,4.4,93,-99.99,,,-99.99,,2013-02-24 00:49:00,
2013-02-23 18:54:00,57.0,55.2,-100.00,South,180,2.0,4.4,93,-99.99,,,-99.99,,2013-02-24 00:54:00,
2013-02-23 18:59:00,57.1,55.4,-100.00,SSE,157,1.5,3.2,94,-99.99,,,-99.99,,2013-02-24 00:59:00,
2013-02-23 19:04:00,57.0,55.1,-100.00,SE,135,2.0,4.0,93,-99.99,,,-99.99,,2013-02-24 01:04:00,
2013-02-23 19:09:00,57.1,55.2,-100.00,SE,135,1.9,4.3,93,-99.99,,,-99.99,,2013-02-24 01:09:00,
2013-02-23 19:14:00,57.1,55.4,-100.00,SE,135,2.0,4.3,94,-99.99,,,-99.99,,2013-02-24 01:14:00,
2013-02-23 19:19:00,57.2,55.2,-100.00,SE,135,2.0,4.4,92,-99.99,,,-99.99,,2013-02-24 01:19:00,
2013-02-23 19:24:00,57.2,55.2,-100.00,SSE,157,1.6,4.6,93,-99.99,,,-99.99,,2013-02-24 01:24:00,
2013-02-23 19:29:00,57.3,55.2,-100.00,SE,135,1.9,4.6,92,-99.99,,,-99.99,,2013-02-24 01:29:00,
2013-02-23 19:34:00,57.3,55.0,-100.00,NE,45,1.4,2.9,91,-99.99,,,-99.99,,2013-02-24 01:34:00,
2013-02-23 19:39:00,57.3,54.9,-100.00,NE,45,1.4,3.7,91,-99.99,,,-99.99,,2013-02-24 01:39:00,
2013-02-23 19:44:00,57.2,54.8,-100.00,East,90,1.4,3.7,91,-99.99,,,-99.99,,2013-02-24 01:44:00,
2013-02-23 19:49:00,57.2,54.8,-100.00,NE,45,1.3,2.8,91,-99.99,,,-99.99,,2013-02-24 01:49:00,
2013-02-23 19:54:00,57.2,55.2,-100.00,NE,45,1.0,2.5,92,-99.99,,,-99.99,,2013-02-24 01:54:00,
2013-02-23 20:00:00,57.2,55.2,-100.00,ESE,112,0.8,1.5,93,-99.99,,,-99.99,,2013-02-24 02:00:00,
2013-02-23 20:05:00,57.2,54.9,-100.00,ESE,112,0.7,1.7,92,-99.99,,,-99.99,,2013-02-24 02:05:00,
2013-02-23 20:10:00,57.2,54.9,-100.00,SSE,157,1.0,2.7,91,-99.99,,,-99.99,,2013-02-24 02:10:00,
2013-02-23 20:15:00,57.3,54.9,-100.00,ESE,112,1.0,2.7,91,-99.99,,,-99.99,,2013-02-24 02:15:00,
2013-02-23 20:20:00,57.3,54.9,-100.00,East,90,1.3,2.8,91,-99.99,,,-99.99,,2013-02-24 02:20:00,
2013-02-23 20:25:00,57.3,54.8,-100.00,SE,135,1.9,4.3,91,-99.99,,,-99.99,,2013-02-24 02:25:00,
2013-02-23 20:30:00,57.4,54.9,-100.00,SSE,157,1.9,4.3,91,-99.99,,,-99.99,,2013-02-24 02:30:00,
2013-02-23 20:35:00,57.3,54.6,-100.00,SSE,157,1.7,4.9,90,-99.99,,,-99.99,,2013-02-24 02:35:00,
2013-02-23 20:40:00,57.3,54.6,-100.00,ESE,112,1.9,4.1,90,-99.99,,,-99.99,,2013-02-24 02:40:00,
2013-02-23 20:45:00,57.4,54.5,-100.00,ESE,112,2.2,4.1,89,-99.99,,,-99.99,,2013-02-24 02:45:00,
2013-02-23 20:50:00,57.4,54.5,-100.00,SSE,157,2.2,4.1,89,-99.99,,,-99.99,,2013-02-24 02:50:00,
2013-02-23 20:55:00,57.4,54.0,-100.00,SE,135,2.5,4.6,88,-99.99,,,-99.99,,2013-02-24 02:55:00,
2013-02-23 21:00:00,57.3,54.1,-100.00,ESE,112,2.1,4.6,88,-99.99,,,-99.99,,2013-02-24 03:00:00,
2013-02-23 21:05:00,57.4,54.4,-100.00,SE,135,2.3,4.9,89,-99.99,,,-99.99,,2013-02-24 03:05:00,
2013-02-23 21:10:00,57.4,53.6,-100.00,ESE,112,3.0,5.7,86,-99.99,,,-99.99,,2013-02-24 03:10:00,
2013-02-23 21:15:00,57.4,54.2,-100.00,East,90,3.0,5.7,88,-99.99,,,-99.99,,2013-02-24 03:15:00,
2013-02-23 21:20:00,57.3,53.6,-100.00,ESE,112,2.4,3.8,87,-99.99,,,-99.99,,2013-02-24 03:20:00,
2013-02-23 21:25:00,57.4,53.6,-100.00,SSE,157,2.6,4.9,86,-99.99,,,-99.99,,2013-02-24 03:25:00,
2013-02-23 21:30:00,57.3,53.3,-100.00,ESE,112,2.8,5.5,86,-99.99,,,-99.99,,2013-02-24 03:30:00,
2013-02-23 21:35:00,57.3,53.4,-100.00,East,90,1.9,4.8,86,-99.99,,,-99.99,,2013-02-24 03:35:00,
2013-02-23 21:40:00,57.2,53.3,-100.00,ENE,67,2.0,4.8,86,-99.99,,,-99.99,,2013-02-24 03:40:00,
2013-02-23 21:46:00,57.2,52.8,-100.00,East,90,2.5,4.1,85,-99.99,,,-99.99,,2013-02-24 03:46:00,
2013-02-23 21:51:00,57.1,52.8,-100.00,ESE,112,2.8,5.0,85,-99.99,,,-99.99,,2013-02-24 03:51:00,
2013-02-23 21:56:00,57.1,52.6,-100.00,SE,135,3.0,4.8,84,-99.99,,,-99.99,,2013-02-24 03:56:00,
2013-02-23 22:01:00,57.1,52.7,-100.00,ESE,112,2.9,4.8,84,-99.99,,,-99.99,,2013-02-24 04:01:00,
2013-02-23 22:06:00,57.1,52.3,-100.00,ESE,112,2.2,3.9,83,-99.99,,,-99.99,,2013-02-24 04:06:00,
2013-02-23 22:11:00,57.0,52.7,-100.00,SE,135,1.9,3.7,85,-99.99,,,-99.99,,2013-02-24 04:11:00,
2013-02-23 22:16:00,57.0,52.3,-100.00,SSE,157,2.5,6.0,84,-99.99,,,-99.99,,2013-02-24 04:16:00,
2013-02-23 22:21:00,56.9,52.4,-100.00,SSE,157,2.8,6.0,84,-99.99,,,-99.99,,2013-02-24 04:21:00,
2013-02-23 22:26:00,56.9,52.3,-100.00,SE,135,2.4,4.4,84,-99.99,,,-99.99,,2013-02-24 04:26:00,
2013-02-23 22:31:00,56.8,52.0,-100.00,SE,135,1.9,4.4,84,-99.99,,,-99.99,,2013-02-24 04:31:00,
2013-02-23 22:36:00,56.9,52.0,-100.00,SE,135,1.7,4.0,83,-99.99,,,-99.99,,2013-02-24 04:36:00,
2013-02-23 22:41:00,56.8,52.0,-100.00,ESE,112,1.7,4.0,83,-99.99,,,-99.99,,2013-02-24 04:41:00,
2013-02-23 22:46:00,56.8,51.7,-100.00,East,90,2.2,4.0,82,-99.99,,,-99.99,,2013-02-24 04:46:00,
2013-02-23 22:51:00,56.9,51.7,-100.00,East,90,2.5,5.1,82,-99.99,,,-99.99,,2013-02-24 04:51:00,
2013-02-23 22:56:00,56.8,51.3,-100.00,ESE,112,2.5,5.6,81,-99.99,,,-99.99,,2013-02-24 04:56:00,
2013-02-23 23:00:00,56.8,50.8,-100.00,East,90,2.3,5.6,80,-99.99,,,-99.99,,2013-02-24 05:00:00,
2013-02-23 23:01:00,56.8,51.3,-100.00,East,90,2.2,4.9,81,-99.99,,,-99.99,,2013-02-24 05:01:00,
2013-02-23 23:06:00,56.8,50.8,-100.00,NE,45,2.8,6.5,80,-99.99,,,-99.99,,2013-02-24 05:06:00,
2013-02-23 23:11:00,56.6,50.5,-100.00,NE,45,3.0,6.7,79,-99.99,,,-99.99,,2013-02-24 05:11:00,
2013-02-23 23:16:00,56.6,50.5,-100.00,ENE,67,2.5,5.2,79,-99.99,,,-99.99,,2013-02-24 05:16:00,
2013-02-23 23:21:00,56.6,50.4,-100.00,NE,45,2.8,5.2,79,-99.99,,,-99.99,,2013-02-24 05:21:00,
2013-02-23 23:26:00,56.5,50.5,-100.00,ENE,67,2.7,5.0,79,-99.99,,,-99.99,,2013-02-24 05:26:00,
2013-02-23 23:31:00,56.4,50.3,-100.00,ESE,112,2.6,5.5,79,-99.99,,,-99.99,,2013-02-24 05:31:00,
2013-02-23 23:36:00,56.3,50.5,-100.00,East,90,2.4,5.5,80,-99.99,,,-99.99,,2013-02-24 05:36:00,
2013-02-23 23:41:00,56.1,50.3,-100.00,ESE,112,2.5,4.9,80,-99.99,,,-99.99,,2013-02-24 05:41:00,
2013-02-23 23:46:00,55.8,50.0,-100.00,SE,135,2.5,5.0,80,-99.99,,,-99.99,,2013-02-24 05:46:00,
2013-02-23 23:51:00,55.5,49.8,-100.00,ENE,67,2.5,5.0,80,-99.99,,,-99.99,,2013-02-24 05:51:00,
2013-02-23 23:56:00,55.4,49.9,-100.00,ENE,67,2.1,4.9,81,-99.99,,,-99.99,,2013-02-24 05:56:00,